User: anonymous   Login
Location: Borea
(45.6167°N, 23.0167°E)
Time: 22:46:21
(UTC+00:00)
Language:

Cosmos 676 Rocket - Orbit

View from above orbital plane
View from above orbital plane
View from above satellite
View from above satellite

Ground track
Ground track

The orbit data is extracted from the following two-line orbital elements,

1 07434U 74071B   24151.60740454  .00000377  00000-0  13449-3 0  9991
2 07434  74.0463 228.9640 0021331 234.6633 125.2527 14.37458042601124
Epoch (UTC): 30 May 2024 14:34:39
Eccentricity: 0.0021331
inclination: 74.0463°
perigee height: 751 km
apogee height: 782 km
right ascension of ascending node: 228.9640°
argument of perigee: 234.6633°
revolutions per day: 14.37458042
mean anomaly at epoch: 125.2527°
orbit number at epoch: 60112

The dashed part of the orbit path shows where the satellite is in the earth's shadow,  

DLR